Weather History for Pittsfield, IL

Change the Weather History Date:

Wednesday, November 21, 2012

  Actual Average (KUIN) Record (KUIN)
Temperature  
Mean Temperature 47 °F 40 °F  
Max Temperature 62 °F 48 °F 74 °F (1913)
Min Temperature 32 °F 31 °F 5 °F (1937)
Degree Days  
Heating Degree Days 18 25  
Month to date heating degree days 427  
Since 1 July heating degree days 851  
Cooling Degree Days 0 0  
Month to date cooling degree days 0  
Year to date cooling degree days 1093  
Moisture  
Dew Point 42 °F    
Average Humidity 87    
Maximum Humidity 99    
Minimum Humidity 53    
Precipitation  
Precipitation 0.00 in 0.10 in 1.20 in (1908)
Month to date precipitation 2.14  
Year to date precipitation 34.20  
Sea Level Pressure  
Sea Level Pressure 30.20 in    
Wind  
Wind Speed 2 mph (SSE)    
Max Wind Speed 9 mph    
Max Gust Speed -    
Visibility 4 miles    
Events Fog    
T = Trace of Precipitation, MM = Missing Value Source: NWS Daily Summary

Daily Weather History Graph

Daily Weather History Graph

Search for Another Location

Airport:

Trip Planner

Search our weather history database for the weather conditions in past years. The results will help you decide how hot, cold, wet, or windy it might be!

Date:

Astronomy

Nov. 21, 2012 Rise Set
Actual Time 6:54 AM CST 4:43 PM CST
Civil Twilight 6:25 AM CST 5:12 PM CST
Nautical Twilight 5:52 AM CST 5:45 PM CST
Astronomical Twilight 5:20 AM CST 6:17 PM CST
Moon 12:58 PM CST (11/21) 12:15 AM CST (11/21)
Length of Visible Light 10h 47m
Length of Day
9h 48m
First Quarter, 62% of the Moon is Illuminated
Nov 21
First Quarter
Nov 28
Full
Dec 6
Last Quarter
Dec 13
New
Dec 19
First Quarter

Hourly Weather History & Observations

Time (CST) Temp. Windchill Dew Point Humidity Pressure Visibility Wind Dir Wind Speed Gust Speed Precip Events Conditions
12:15 AM 42.1 °F - 41.2 °F 97% 30.21 in 0.2 mi Calm Calm - N/A Fog Fog
12:35 AM 41.5 °F - 40.6 °F 97% 30.21 in 0.2 mi Calm Calm - N/A Fog Fog
12:55 AM 40.5 °F - 39.7 °F 97% 30.21 in 0.2 mi Calm Calm - N/A Fog Fog
1:15 AM 40.1 °F - 39.4 °F 97% 30.21 in 0.2 mi Calm Calm - N/A Fog Fog
1:35 AM 40.1 °F - 39.2 °F 97% 30.22 in 0.2 mi Calm Calm - N/A Fog Fog
1:55 AM 39.4 °F - 38.7 °F 97% 30.23 in 0.2 mi Calm Calm - N/A Fog Fog
2:15 AM 38.3 °F - 37.4 °F 97% 30.23 in 0.2 mi Calm Calm - N/A Fog Fog
2:35 AM 37.8 °F - 37.0 °F 97% 30.23 in 0.2 mi Calm Calm - N/A Fog Fog
2:55 AM 37.4 °F - 36.7 °F 97% 30.22 in 0.2 mi Calm Calm - N/A Fog Fog
3:15 AM 36.5 °F - 36.0 °F 98% 30.22 in 0.2 mi Calm Calm - N/A Fog Fog
3:35 AM 36.0 °F - 35.6 °F 99% 30.22 in 0.5 mi Calm Calm - N/A Fog Fog
3:55 AM 35.4 °F - 34.9 °F 98% 30.23 in 0.5 mi Calm Calm - N/A Fog Fog
4:15 AM 34.7 °F - 34.2 °F 98% 30.23 in 1.2 mi Calm Calm - N/A   Mist
4:35 AM 33.8 °F - 33.3 °F 98% 30.24 in 1.2 mi Calm Calm - N/A   Mist
4:55 AM 34.2 °F - 33.8 °F 99% 30.25 in 1.5 mi Calm Calm - N/A   Mist
5:15 AM 33.8 °F - 33.3 °F 98% 30.25 in 3.0 mi Calm Calm - N/A   Clear
5:35 AM 32.7 °F - 32.2 °F 98% 30.24 in 0.5 mi Calm Calm - N/A Fog Fog
5:55 AM 33.3 °F - 32.7 °F 98% 30.25 in 0.8 mi Calm Calm - N/A   Mist
6:15 AM 32.4 °F - 32.0 °F 99% 30.25 in 0.5 mi Calm Calm - N/A Fog Fog
6:35 AM 32.7 °F - 32.2 °F 98% 30.26 in 1.5 mi Calm Calm - N/A   Overcast
6:55 AM 32.2 °F - 32.0 °F 99% 30.26 in 2.0 mi Calm Calm - N/A   Overcast
7:15 AM 32.2 °F - 32.0 °F 99% 30.26 in 1.8 mi Calm Calm - N/A   Mostly Cloudy
7:35 AM 33.3 °F - 32.9 °F 99% 30.26 in 2.0 mi Calm Calm - N/A   Clear
7:55 AM 33.3 °F - 32.9 °F 99% 30.27 in 0.5 mi Calm Calm - N/A Fog Fog
8:15 AM 33.8 °F - 33.3 °F 98% 30.27 in 0.5 mi Calm Calm - N/A Fog Fog
8:35 AM 35.1 °F - 34.7 °F 99% 30.28 in 0.5 mi Calm Calm - N/A Fog Fog
8:55 AM 36.7 °F 34.1 °F 36.1 °F 98% 30.28 in 0.2 mi SSE 3.5 mph - N/A Fog Fog
9:15 AM 39.4 °F 37.2 °F 38.5 °F 97% 30.28 in 0.2 mi South 3.5 mph - N/A Fog Fog
9:35 AM 41.2 °F - 40.5 °F 97% 30.28 in 0.2 mi Calm Calm - N/A Fog Fog
9:55 AM 43.2 °F 40.5 °F 42.4 °F 97% 30.28 in 0.2 mi South 4.6 mph - N/A Fog Fog
10:15 AM 45.0 °F 43.5 °F 44.1 °F 97% 30.28 in 0.2 mi South 3.5 mph - N/A Fog Fog
10:35 AM 46.6 °F - 45.5 °F 96% 30.27 in 0.5 mi SSE 4.6 mph - N/A Fog Fog
10:55 AM 47.8 °F - 46.9 °F 97% 30.27 in 1.5 mi SSE 4.6 mph - N/A   Overcast
11:15 AM 49.6 °F - 48.6 °F 96% 30.25 in 3.0 mi South 4.6 mph - N/A   Mostly Cloudy
11:35 AM 51.3 °F - 50.2 °F 96% 30.25 in 5.0 mi South 5.8 mph - N/A   Scattered Clouds
11:55 AM 52.9 °F - 50.9 °F 93% 30.24 in 7.0 mi South 3.5 mph - N/A   Clear
12:15 PM 56.3 °F - 49.6 °F 78% 30.23 in 10.0 mi South 8.1 mph - N/A   Clear
12:35 PM 58.3 °F - 49.1 °F 71% 30.21 in 10.0 mi South 6.9 mph - N/A   Clear
12:55 PM 59.0 °F - 48.7 °F 69% 30.21 in 10.0 mi South 5.8 mph - N/A   Clear
1:15 PM 60.3 °F - 49.1 °F 67% 30.20 in 10.0 mi SSW 8.1 mph - N/A   Clear
1:35 PM 60.8 °F - 48.2 °F 63% 30.19 in 10.0 mi South 6.9 mph - N/A   Clear
1:55 PM 61.0 °F - 49.5 °F 66% 30.18 in 10.0 mi SSE 8.1 mph - N/A   Clear
2:15 PM 61.7 °F - 48.7 °F 62% 30.18 in 10.0 mi South 6.9 mph - N/A   Clear
2:35 PM 61.7 °F - 47.5 °F 60% 30.18 in 10.0 mi South 5.8 mph - N/A   Clear
2:55 PM 62.1 °F - 46.0 °F 56% 30.16 in 10.0 mi South 6.9 mph - N/A   Clear
3:15 PM 62.2 °F - 45.0 °F 53% 30.16 in 10.0 mi South 8.1 mph - N/A   Clear
3:35 PM 61.9 °F - 44.4 °F 53% 30.16 in 10.0 mi SSE 9.2 mph - N/A   Clear
3:55 PM 61.0 °F - 45.0 °F 56% 30.16 in 10.0 mi South 8.1 mph - N/A   Clear
4:15 PM 59.7 °F - 44.2 °F 57% 30.15 in 7.0 mi South 5.8 mph - N/A   Clear
4:35 PM 57.0 °F - 43.7 °F 61% 30.15 in 10.0 mi SSE 5.8 mph - N/A   Clear
4:55 PM 53.8 °F - 43.2 °F 67% 30.15 in 10.0 mi SSE 5.8 mph - N/A   Clear
5:15 PM 53.8 °F - 43.0 °F 67% 30.15 in 10.0 mi SE 6.9 mph - N/A   Clear
5:35 PM 52.0 °F - 43.7 °F 73% 30.15 in 10.0 mi SSE 5.8 mph - N/A   Clear
5:55 PM 50.9 °F - 43.7 °F 76% 30.15 in 10.0 mi SSE 6.9 mph - N/A   Clear
6:15 PM 50.0 °F - 43.7 °F 79% 30.15 in 10.0 mi SSE 8.1 mph - N/A   Clear
6:35 PM 48.6 °F - 43.2 °F 82% 30.15 in 10.0 mi SSE 6.9 mph - N/A   Clear
6:55 PM 48.7 °F - 43.3 °F 82% 30.14 in 10.0 mi SSE 5.8 mph - N/A   Clear
7:15 PM 49.6 °F - 44.4 °F 82% 30.14 in 10.0 mi SSE 5.8 mph - N/A   Clear
7:35 PM 50.0 °F - 44.8 °F 82% 30.13 in 7.0 mi SE 4.6 mph - N/A   Clear
7:55 PM 49.1 °F - 44.6 °F 84% 30.13 in 7.0 mi SE 4.6 mph - N/A   Clear
8:15 PM 48.4 °F - 44.6 °F 87% 30.13 in 5.0 mi SSE 5.8 mph - N/A   Clear
8:35 PM 47.3 °F - 43.9 °F 88% 30.13 in 5.0 mi SSE 5.8 mph - N/A   Clear
8:55 PM 47.1 °F - 44.2 °F 90% 30.14 in 4.0 mi SSE 5.8 mph - N/A   Clear
9:15 PM 47.8 °F - 44.8 °F 89% 30.13 in 4.0 mi SSE 8.1 mph - N/A   Clear
9:35 PM 48.2 °F - 45.0 °F 89% 30.13 in 3.0 mi SSE 6.9 mph - N/A   Clear
9:55 PM 48.6 °F - 45.5 °F 89% 30.13 in 3.0 mi SSE 5.8 mph - N/A   Clear
10:15 PM 48.2 °F - 45.1 °F 89% 30.13 in 3.0 mi SE 6.9 mph - N/A   Clear
10:35 PM 47.5 °F - 44.6 °F 90% 30.12 in 3.0 mi SSE 6.9 mph - N/A   Clear
10:55 PM 47.5 °F - 44.6 °F 90% 30.12 in 3.0 mi SE 4.6 mph - N/A   Clear
11:15 PM 46.6 °F - 43.7 °F 90% 30.12 in 3.0 mi SSE 5.8 mph - N/A   Clear
11:35 PM 46.9 °F - 44.6 °F 92% 30.11 in 3.0 mi SSE 5.8 mph - N/A   Clear
11:55 PM 46.2 °F 43.3 °F 43.5 °F 90% 30.11 in 3.0 mi SSE 5.8 mph - N/A   Clear